Simultaneous Nadir Overpasses (SNOs) Predictions

Prediction of SNOs between AQUA and NOAA-19 Satellite Orbit:

Table of predicted SNOs for the next 14.0 days since TLE Epoch: 11/27/2021
Index Date (AQUA) Time (AQUA) Lat,Lon (AQUA) SZA (AQUA ) Date (NOAA-19) Time (NOAA-19) Lat,Lon (NOAA-19) SZA (NOAA-19 ) Distance(km) Time Diff (sec)
1 11/29/2021 08:01:30 78.27, 39.75 100.22 11/29/2021 08:01:15 78.25, 39.84 100.20 3.34 15
2 12/01/2021 13:35:12 -78.23, 136.54 79.47 12/01/2021 13:34:26 -78.22, 136.46 79.46 1.96 46
3 12/01/2021 14:24:40 78.26, -55.99 100.58 12/01/2021 14:25:19 78.27, -55.98 100.58 0.58 39
4 12/03/2021 19:58:23 -78.27, 40.57 79.09 12/03/2021 19:58:30 -78.25, 40.67 79.12 3.25 7
5 12/06/2021 01:32:06 78.22, 137.35 101.16 12/06/2021 01:31:29 78.22, 137.37 101.17 0.60 37
6 12/06/2021 02:21:33 -78.27, -55.22 78.79 12/06/2021 02:22:34 -78.27, -55.13 78.81 1.99 61
7 12/08/2021 07:05:48 -78.19,-125.91 78.63 12/08/2021 07:04:40 -78.21,-125.95 78.59 1.92 68
8 12/08/2021 07:55:16 78.24, 41.51 101.44 12/08/2021 07:55:33 78.24, 41.54 101.44 0.84 17
9 12/10/2021 13:28:57 -78.20, 138.24 78.38 12/10/2021 13:28:43 -78.22, 138.21 78.36 1.97 14



Historial Predications of SNOs between AQUA and NOAA-19
